Regional Weather Roundup
Issued by NWS

Home | Current Version | Previous Version | Graphics & Text | Print | Product List | Glossary On
Versions: 1 2 3 4 5 6 7 8 9 10 11 12 13 14 15 16 17 18 19 20 21 22 23 24 25 26 27 28 29 30 31 32 33 34 35 36 37 38 39 40 41 42 43 44 45 46 47 48 49 50
000
ASUS43 KMKX 201300
RWRWI

WISCONSIN REGIONAL WEATHER ROUNDUP
NATIONAL WEATHER SERVICE MILWAUKEE/SULLIVAN WI
800 AM CDT SAT SEP 20 2014

NOTE: "FAIR" INDICATES FEW OR NO CLOUDS BELOW 12,000 FEET WITH NO
SIGNIFICANT WEATHER AND/OR OBSTRUCTIONS TO VISIBILITY.

WIZ001-002-006>008-014>016-023>028-201400-
NORTHWEST WISCONSIN

CITY           SKY/WX    TMP DP  RH WIND       PRES   REMARKS
SUPERIOR ARPT  PTSUNNY   62  58  85 NW15      29.68R
ASHLAND        CLOUDY    65  61  87 W7        29.66R
HAYWARD        CLOUDY    64  61  90 W5        29.70R
SIREN          CLOUDY    62  60  93 W7        29.73R
RICE LAKE      CLOUDY    66  63  89 W9G16     29.72R
LADYSMITH      CLOUDY    67  64  91 SW9G16    29.71R
EAU CLAIRE     NOT AVBL
MENOMONIE      SUNNY     67  64  89 SW12G17   29.72R
NEW RICHMOND   SUNNY     64  62  94 W13       29.75R
OSCEOLA        CLOUDY    64  62  96 NW10G17   29.78R
$$

WIZ003>005-009-010-017-018-201400-
NORTH CENTRAL WISCONSIN

CITY           SKY/WX    TMP DP  RH WIND       PRES   REMARKS
WOODRUFF       CLOUDY    67  63  87 W10G17    29.66S
RHINELANDER    CLOUDY    65  63  93 SW10      29.68S
EAGLE RIVER    CLOUDY    65  64  94 SW12      29.65S
LAND O LAKES   CLOUDY    66  64  91 SW8       29.65S
PHILLIPS       CLOUDY    66  63  91 SW7G16    29.67R
TOMAHAWK       CLOUDY    65  62  88 SW3       29.69R
MEDFORD        CLOUDY    63  61  96 SW9       29.72R
MERRILL        CLOUDY    65  63  94 SW9       29.70S
$$

WIZ029-030-035-036-043>047-201400-
CENTRAL WISCONSIN

CITY           SKY/WX    TMP DP  RH WIND       PRES   REMARKS
WAUSAU         PTSUNNY   64  61  90 SW12      29.70S
MOSINEE        SUNNY     63  63 100 SW10G16   29.72F
MARSHFIELD     MOSUNNY   64  62  93 SW10      29.72F
STEVENS POINT  CLOUDY    61  60  96 SW8       29.73F
WAUPACA        CLOUDY    64  63  95 S6        29.73F FOG
WAUTOMA        NOT AVBL
WISC RAPIDS    PTSUNNY   63  61  93 S7        29.74F
CAMP DOUGLAS   NOT AVBL
$$

WIZ011>013-019>022-031-037>040-048>050-201400-
NORTHEAST WISCONSIN

CITY           SKY/WX    TMP DP  RH WIND       PRES   REMARKS
ANTIGO         CLOUDY    62  60  94 SW13      29.71S
STURGEON BAY   CLOUDY    64  59  82 W16G25    29.68S
GREEN BAY      LGT RAIN  64  62  93 SW13      29.71F
MANITOWOC      NOT AVBL
APPLETON       CLOUDY    63  61  94 SW15      29.74F FOG
CLINTONVILLE   CLOUDY    63  61  94 SW7       29.70F
OSHKOSH        CLOUDY    64  62  93 SW7       29.76S FOG
$$

WIZ032>034-041-042-053>061-201400-
SOUTHWEST WISCONSIN

CITY           SKY/WX    TMP DP  RH WIND       PRES   REMARKS
LA CROSSE      MOSUNNY   68  62  81 VRB6      29.74F
SPARTA         MOSUNNY   63  61  94 CALM      29.77S
VIROQUA        PTSUNNY   64  64 100 W12       29.79S
BOSCOBEL       CLOUDY    66  62  87 S3        29.79R
PRAIRIE DU CHI CLOUDY    66  62  85 W3        29.79S
PLATTEVILLE    FAIR      64  63  94 W9        29.84R
$$

WIZ056-057-062-063-064-067-068-201400-
SOUTH CENTRAL WISCONSIN

CITY           SKY/WX    TMP DP  RH WIND       PRES   REMARKS
BARABOO/DELLS  CLOUDY    63  61  93 S12       29.78S
LONE ROCK      NOT AVBL
WATERTOWN      CLOUDY    64  62  93 W7G16     29.81R
MADISON        CLOUDY    66  62  87 CALM      29.80F
MIDDLETON      PTSUNNY   66  64  91 W10       29.81R
MONROE         CLOUDY    63  61  94 S17       29.79F FOG
JANESVILLE     MOSUNNY   64  61  88 S13       29.80F
$$

WIZ051-052-058>065-066-070>072-201400-
SOUTHEAST WISCONSIN

CITY           SKY/WX    TMP DP  RH WIND       PRES   REMARKS
MILWAUKEE      CLOUDY    65  58  78 SW20G30   29.78F
WAUKESHA       SUNNY     63  59  88 SW9G16    29.82S
MILWAUKEE/TIMM SUNNY     64  57  77 SW9G16    29.78F
RACINE         CLOUDY    65  57  75 SW18      29.81F
BURLINGTON     CLOUDY    60  57  91 S13G18    29.81F
KENOSHA        CLOUDY    64  58  80 SW16      29.82F
FOND DU LAC    CLOUDY    64  60  87 SW14G25   29.77R
SHEBOYGAN      CLOUDY    64  60  87 SW12      29.76R
WEST BEND      CLOUDY    63  57  82 W9        29.79R
JUNEAU         CLOUDY    62  60  94 SW7       29.82R
$$

LSZ147-162-201400-
LAKE SUPERIOR

STATION/POSITION TIME  TEMP    WIND        PRES    WAVE
                       AIR SEA DIR/SP/G            HT/PER
                 (UTC) (F)     (DEG/KT/KT) (MB)    (FT/S)
W MID LAKE BUOY  1150   55 47  220/ 10/ 10 1000.7R   1
DEVILS ISLAND    1200   58     240/ 21/ 24 1001.8R
PORT WING        1240   62     260/ 14/ 17 1004.4R
SAXON HARBOR     1200   69     250/  5/ 14 1003.0R
$$

LMZ867-665-643>646-201400-
LAKE MICHIGAN

STATION/POSITION TIME  TEMP    WIND        PRES    WAVE
                       AIR SEA DIR/SP/G            HT/PER
                 (UTC) (F)     (DEG/KT/KT) (MB)    (FT/S)
N MID LAKE BUOY  1150   61 58  220/ 19/ 25 1004.6F   7/ 7
NORTHPORT PIER   1220   64     260/  6/ 20 1004.1F
SISTER BAY       1227          250/ 13/ 16   N/A
ALGOMA LAKESHORE 1039          280/ 17/ 29   N/A
KEWAUNEE LAKESHO 1200   65     250/ 12/ 19 1005.2F
SHEBOYGAN LAKESH 1200   65 54  230/ 14/ 15 1007.4F
PORT WASHINGTON  1220   66     210/  5/ 15 1007.8F
ATWATER BUOY     1200   64     210/ 17/ 21 1009.9F
MILWAUKEE LAKESH 1200   65     230/ 17/ 20   N/A
S MID LAKE BUOY  1150   65 64  210/ 21/ 25 1011.1F
KENOSHA   LAKESH 1200   66     210/ 13/ 20 1010.5F
$$

TC  - TEMPERATURE IN CELSIUS
VSB - VISIBILITY IN STATUTE MILES
WCI - WIND CHILL INDEX
HX  - HEAT INDEX




USA.gov is the U.S. government's official web portal to all federal, state and local government web resources and services.